GFSCGP_850_rhum_174.txt.gz
RH
76 86 78 52 56 57 64 76 81 63 51 56 54 52 44 37 38 39 40 42 41 40 40 41 43 54 89 95 86 87 100 100 95 78 68 44 36 32 32 33 35 36 37 36
72 80 50 57 62 69 72 83 85 57 50 55 55 54 43 37 37 37 37 40 43 41 40 38 46 50 88 91 93 95 99 99 97 90 71 49 39 33 34 36 37 38 38 36
70 51 59 66 68 78 73 76 66 67 57 56 55 49 32 27 28 30 34 37 43 44 43 40 42 56 87 78 94 99 98 100 98 89 68 50 42 32 36 41 39 38 39 37
77 59 69 67 76 69 93 51 59 68 88 85 65 82 45 33 32 32 34 35 37 41 43 43 40 63 83 61 85 100 100 100 90 93 68 43 30 29 35 39 39 39 39 37
67 60 64 73 66 64 74 56 71 75 92 97 68 93 40 28 36 41 38 41 44 38 40 40 41 63 81 75 81 100 100 98 87 92 69 48 32 32 36 43 40 42 40 39
71 66 73 66 61 62 56 72 62 92 92 93 51 62 41 32 41 41 38 44 54 51 38 40 41 67 99 95 99 100 100 99 91 98 68 47 32 33 42 44 41 43 42 44
58 55 64 72 69 52 72 71 78 79 90 65 44 64 46 32 39 43 46 48 56 62 42 41 46 73 100 100 100 100 100 100 92 96 65 47 37 41 46 45 40 42 42 46
84 74 53 60 60 58 61 70 88 89 69 67 41 67 34 33 40 45 54 64 65 61 45 43 54 86 99 99 100 100 100 100 89 92 64 47 51 51 49 42 40 44 46 48
62 73 46 51 48 58 68 81 60 98 57 83 44 38 32 33 43 56 64 79 67 68 48 46 70 96 96 100 100 100 100 94 83 87 70 57 54 49 46 41 42 47 44 49
53 74 47 51 54 54 62 60 97 80 86 70 41 38 48 41 60 70 80 74 66 72 57 62 82 100 100 100 100 100 99 97 78 86 73 60 49 54 48 43 45 48 50 52
56 64 53 50 45 44 57 67 87 97 83 83 69 45 32 54 50 76 83 72 88 76 73 78 97 99 100 99 100 100 100 88 76 70 71 55 50 57 54 51 52 48 57 53
51 60 81 54 38 46 49 54 61 93 77 74 85 60 45 43 43 60 74 93 98 82 78 90 100 99 99 99 100 100 96 99 73 68 71 59 48 51 59 59 55 46 61 63
53 58 71 42 43 49 52 43 52 67 95 73 83 49 32 30 35 64 82 99 100 94 94 99 100 100 99 100 100 100 94 84 89 79 72 62 53 54 62 60 56 62 60 46
56 58 60 58 42 37 50 48 48 59 87 62 52 44 30 35 45 72 89 98 100 100 100 100 100 100 99 100 94 100 85 90 94 84 73 71 64 61 61 67 66 63 51 40
56 64 59 61 56 55 58 60 57 61 62 71 42 44 40 38 58 92 91 98 100 100 100 99 100 98 100 100 92 91 93 93 88 77 68 67 71 72 66 65 64 50 40 19
68 62 67 69 43 58 63 51 49 46 45 46 46 43 28 50 89 90 89 97 100 100 100 99 100 100 89 100 98 89 92 86 79 74 71 69 72 73 68 67 52 41 18 16
60 62 68 59 50 52 47 37 37 36 32 34 40 32 34 62 88 96 93 95 100 100 100 100 100 85 100 94 91 89 89 91 85 74 75 78 77 74 71 53 41 18 18 21
60 62 69 73 58 45 33 32 37 37 29 29 32 34 42 72 93 100 100 100 99 100 100 100 100 100 100 99 98 92 97 88 86 90 92 90 80 66 55 39 19 19 22 23
60 56 62 79 63 42 33 30 38 30 30 27 35 38 43 50 88 91 100 97 98 99 100 100 100 100 100 99 96 96 93 89 90 90 84 80 71 52 41 20 20 22 23 22
68 60 64 70 76 43 30 31 34 31 36 28 36 41 46 45 67 72 92 81 98 100 100 100 100 100 97 100 99 96 98 96 94 90 78 64 56 41 20 19 22 22 21 18
79 75 79 73 72 50 36 41 36 32 30 30 36 46 51 48 52 71 99 74 81 94 100 100 100 99 100 99 100 95 97 95 89 74 55 50 37 19 20 22 22 21 17 12
64 70 78 75 79 64 39 36 33 28 32 34 37 48 54 57 55 84 100 78 76 74 95 100 98 100 100 99 96 92 93 80 60 53 47 31 20 21 22 22 20 16 10 8
41 38 43 50 43 38 42 38 36 40 37 36 40 42 48 56 55 86 93 86 74 81 84 88 89 89 91 90 90 75 60 54 50 44 27 19 20 21 21 19 15 8 7 8
38 43 40 43 33 36 31 31 36 36 38 33 39 41 47 51 58 75 87 84 73 82 81 81 75 72 68 66 58 45 46 46 40 28 19 19 21 21 19 14 7 7 8 10
38 43 38 40 32 32 35 34 36 35 32 35 38 39 45 50 59 63 63 65 68 69 68 62 52 48 49 51 47 46 44 39 27 20 20 22 21 18 12 8 8 8 10 10
43 38 35 29 33 33 33 33 40 38 33 34 37 38 44 49 59 62 62 63 63 60 54 49 45 42 43 47 49 44 37 28 21 20 22 21 18 10 7 8 9 10 11 12

GFSCGP_850_rhum_177.txt.gz
RH
56 70 69 42 40 44 52 60 62 53 41 46 47 44 38 31 29 29 27 27 27 28 32 36 36 36 38 43 46 61 72 68 96 98 85 86 63 58 44 31 32 35 35 36
57 65 40 45 50 54 56 65 70 45 36 41 46 48 37 27 25 24 27 27 29 30 31 35 37 37 38 42 64 76 88 99 99 100 81 92 74 45 40 30 34 36 37 37
57 43 43 50 54 61 60 65 56 54 44 43 47 48 27 22 24 24 28 32 33 35 36 36 37 37 37 43 74 94 98 98 98 100 97 92 87 82 46 34 34 39 39 36
56 46 54 55 60 56 91 45 42 53 65 82 64 80 42 30 23 20 26 31 33 38 44 37 38 38 38 45 82 99 99 100 100 100 99 79 85 71 49 33 37 39 40 37
62 48 53 60 50 47 61 46 53 60 82 94 62 92 38 25 22 25 28 34 36 42 43 49 37 39 38 52 87 100 90 98 99 100 99 97 87 81 62 40 38 39 39 36
57 50 56 57 50 48 46 55 52 75 85 88 43 52 42 30 26 25 27 38 46 57 56 52 39 37 40 62 93 99 99 100 100 100 98 96 83 76 67 44 40 40 38 35
48 44 48 58 55 33 51 54 82 67 82 62 29 39 34 24 22 26 38 48 54 67 61 56 38 37 41 80 98 99 99 100 100 100 99 86 89 76 59 43 38 38 39 40
75 77 48 47 50 51 49 59 89 88 66 63 39 51 32 20 21 35 39 47 62 72 64 56 38 39 54 86 100 99 100 100 100 100 98 78 76 67 54 44 39 40 40 41
46 52 37 36 36 47 48 74 57 82 55 61 40 27 21 23 34 38 40 51 69 71 62 52 41 44 91 86 99 100 100 100 100 99 96 81 95 61 56 48 44 44 44 44
40 61 37 40 42 40 51 43 75 67 86 70 42 37 48 33 44 40 40 62 77 86 71 49 43 67 94 98 99 100 100 99 99 92 75 73 90 67 60 52 45 46 46 47
42 46 47 40 42 36 39 57 85 88 82 88 73 47 26 35 39 46 59 74 92 97 62 51 61 83 100 100 100 100 100 100 92 72 71 76 92 79 57 51 51 50 49 50
39 45 58 48 32 29 37 44 42 85 68 69 72 63 22 29 35 58 83 84 98 79 75 80 79 94 100 100 100 100 100 99 92 92 85 81 76 68 58 59 50 50 50 52
41 49 61 43 36 42 40 28 29 37 57 77 82 54 24 24 42 58 83 96 100 95 89 94 95 99 100 100 99 100 100 95 95 79 87 78 78 62 59 56 57 58 54 48
51 50 54 59 44 38 47 40 39 44 68 60 50 40 30 30 55 83 90 97 99 97 92 100 99 99 100 100 99 100 94 96 100 100 95 82 89 86 75 64 54 61 54 40
49 58 51 45 42 43 46 44 42 49 47 55 44 39 30 35 69 96 95 98 99 99 99 99 98 100 98 100 100 91 86 95 100 100 97 99 91 84 69 63 61 59 44 30
51 59 51 64 38 36 48 38 37 39 37 31 30 30 24 42 76 90 98 98 98 100 98 100 100 99 99 100 100 100 96 90 97 98 97 92 86 84 73 67 57 46 26 15
52 59 57 62 37 42 41 33 31 30 26 26 32 27 27 52 70 96 99 100 99 100 99 100 99 100 100 100 100 100 100 100 90 88 91 91 84 74 70 58 45 25 16 19
47 57 57 69 48 50 30 23 30 34 27 24 27 28 34 46 58 96 100 100 99 100 100 100 100 100 100 100 100 91 87 83 92 94 90 88 82 74 60 45 26 16 19 22
46 48 57 67 55 39 30 28 34 35 26 25 30 30 35 44 50 83 100 99 100 100 100 100 100 100 100 98 99 100 100 100 92 87 88 87 78 61 47 28 17 20 22 22
50 48 52 53 67 49 27 28 35 27 35 27 29 32 41 43 54 76 99 94 100 100 100 99 100 99 95 91 88 91 93 92 99 98 90 81 67 51 35 20 22 22 22 20
72 66 70 62 64 50 28 34 32 35 32 30 29 34 45 50 52 64 96 91 99 100 100 100 100 100 100 94 97 99 100 100 99 94 85 70 57 35 20 23 24 24 20 15
59 64 66 56 67 73 29 35 32 29 31 32 31 38 50 53 57 78 98 84 97 100 100 100 99 95 96 97 94 100 100 100 96 88 73 66 42 23 23 23 22 18 14 7
47 37 44 46 46 31 33 34 33 35 36 36 36 43 53 50 58 81 92 82 85 97 100 100 100 99 100 100 100 98 99 96 86 68 56 31 21 22 22 21 18 12 7 6
30 31 34 38 27 32 30 30 34 38 37 37 44 48 53 53 53 73 90 81 82 84 97 100 100 100 100 100 100 91 90 73 59 52 29 21 22 22 21 18 11 6 6 9
33 34 32 33 27 28 31 32 37 39 38 33 40 38 47 55 53 65 84 84 85 83 82 93 94 92 93 93 92 78 62 54 49 31 21 21 21 21 18 11 6 6 10 11
36 32 34 25 24 27 31 35 38 38 41 38 36 45 44 48 60 64 65 70 78 82 83 81 80 76 72 67 59 54 53 47 32 21 21 21 21 20 14 6 7 10 12 14

GFSCGP_850_rhum_180.txt.gz
RH
61 76 91 51 47 48 57 66 70 57 45 48 47 46 40 36 36 35 31 28 26 27 28 29 30 33 34 34 37 38 39 58 49 53 75 100 98 87 88 87 78 59 38 36
62 84 45 48 51 54 59 70 71 54 42 43 49 53 48 39 33 27 26 29 30 32 35 38 38 34 36 36 35 39 45 57 65 65 70 100 100 96 89 89 86 70 38 33
64 53 41 48 55 62 65 70 63 60 49 51 60 60 44 36 29 26 24 29 32 34 39 43 44 43 36 38 38 40 49 66 73 82 97 100 100 92 92 81 76 67 44 36
62 44 50 56 64 57 88 45 49 60 74 88 57 87 57 40 31 26 24 27 31 37 44 49 50 47 46 38 38 41 46 77 87 95 94 98 99 92 76 75 84 66 48 37
67 49 62 71 59 46 67 48 59 65 77 88 71 96 65 37 34 28 26 28 44 48 50 52 54 52 43 41 39 42 57 80 91 92 92 100 100 88 82 80 79 60 48 38
63 47 54 57 52 53 50 56 54 67 92 98 67 78 65 38 28 27 34 41 42 43 48 57 64 69 56 43 41 44 67 99 93 98 99 100 99 96 86 82 76 56 43 34
58 50 50 52 64 45 44 64 93 89 95 83 42 56 44 31 36 43 45 40 40 51 62 68 70 65 57 41 46 62 73 85 100 100 100 100 99 93 82 76 67 52 41 33
87 78 54 56 57 57 56 59 94 97 90 77 53 74 49 25 35 36 36 43 58 61 67 77 70 58 44 42 51 70 83 94 100 100 100 100 98 96 75 52 58 50 38 39
61 63 38 40 39 43 51 74 62 91 76 85 65 41 30 29 44 44 47 56 70 84 82 88 73 45 41 49 63 80 92 100 100 100 100 100 100 88 89 83 51 48 47 49
44 73 42 38 43 46 52 45 78 90 97 90 68 53 70 39 51 49 60 53 61 90 90 77 49 46 58 66 84 86 96 100 100 100 100 100 88 83 80 77 59 52 49 47
44 50 52 42 46 49 54 71 69 96 99 96 92 61 33 35 44 64 64 64 81 93 95 66 51 65 76 90 88 97 100 100 100 100 99 89 82 82 82 67 59 54 51 51
47 53 75 52 36 34 32 41 44 88 79 82 79 74 33 31 46 65 63 90 95 99 91 84 84 85 80 87 95 100 100 100 100 100 90 92 99 86 87 75 63 59 54 51
45 63 80 60 47 42 46 41 41 45 55 65 87 67 27 30 48 57 91 97 95 98 90 96 94 88 96 99 100 100 100 100 100 92 94 100 96 81 66 68 70 58 53 54
48 53 61 68 50 49 58 50 46 50 78 65 63 55 40 32 52 62 90 97 99 96 92 99 99 90 99 100 100 100 100 100 97 97 99 97 96 71 63 59 58 61 56 48
56 69 60 56 51 51 54 56 53 54 49 63 54 49 33 35 52 63 99 97 95 96 100 98 100 100 100 100 100 100 99 96 93 97 98 91 82 73 70 66 65 58 48 34
56 80 66 71 53 52 53 43 44 44 41 42 41 35 24 34 45 59 99 99 98 100 99 100 100 100 100 100 100 100 93 91 95 97 95 97 95 88 73 68 64 54 38 17
59 77 74 81 61 59 64 42 35 37 35 34 38 31 30 38 49 57 100 99 100 100 100 98 100 100 100 100 100 93 88 98 90 91 92 98 99 94 81 70 56 43 18 18
52 62 74 87 72 76 36 29 29 37 37 35 30 33 36 42 47 69 98 100 100 100 100 100 99 100 100 100 100 100 99 100 100 95 91 96 93 83 75 57 39 21 22 23
49 60 74 86 76 55 43 30 35 39 40 30 33 35 36 44 46 88 94 100 99 100 99 99 97 99 100 100 100 97 99 98 90 91 95 93 87 75 58 41 24 18 22 23
58 58 70 70 80 72 34 32 35 28 49 34 32 36 47 49 71 84 92 99 100 100 100 100 100 99 100 100 100 99 100 93 95 95 93 88 77 60 42 21 19 22 23 21
76 71 84 75 82 64 39 39 30 39 42 36 34 34 47 57 58 57 88 97 100 100 100 100 100 99 100 99 97 97 96 97 97 96 94 84 62 50 24 19 22 23 21 18
79 85 87 80 81 81 38 35 36 37 33 35 36 38 46 50 57 78 83 91 100 100 100 100 99 98 97 95 92 91 93 100 100 96 81 60 46 28 22 22 23 21 18 8
67 56 70 60 59 36 34 31 32 31 35 35 37 41 46 49 58 83 84 86 98 100 99 100 98 96 100 100 97 99 100 100 100 90 71 61 34 24 25 25 23 17 7 7
38 37 45 47 37 43 35 31 35 33 35 33 36 43 45 48 58 79 88 82 95 100 100 100 93 98 100 100 100 99 100 99 88 70 63 40 24 24 22 20 16 7 7 10
40 42 44 44 33 29 29 29 31 33 36 37 37 41 41 45 59 66 91 82 84 96 99 100 100 100 100 100 100 100 98 94 75 59 38 22 22 22 21 17 8 7 10 12
39 43 46 46 31 31 35 33 33 36 36 36 35 43 47 47 58 60 79 82 90 88 97 99 99 100 100 100 100 98 91 74 59 43 24 22 22 21 19 10 7 10 12 14

GFSCGP_850_rhum_183.txt.gz
RH
73 80 84 73 53 54 64 72 81 63 53 59 52 52 47 42 42 45 40 33 31 30 28 33 34 37 36 34 34 35 35 36 45 62 66 77 88 92 88 87 82 84 84 70
72 86 66 49 53 59 67 79 79 65 55 53 57 61 52 46 44 38 34 30 29 28 34 36 39 38 44 37 36 36 37 37 43 55 56 66 62 98 100 97 87 76 90 75
72 55 49 49 56 66 72 78 74 75 56 58 67 70 54 40 39 31 25 28 28 33 40 43 43 43 44 47 44 38 37 38 41 48 64 84 92 99 100 97 89 81 71 75
72 55 50 58 70 68 92 58 60 64 81 94 68 90 67 53 46 36 28 30 38 46 44 42 41 39 38 33 34 41 40 38 43 44 76 79 81 96 100 98 99 93 69 64
47 57 61 68 65 52 66 54 67 68 82 96 78 96 79 54 48 41 41 44 41 41 47 47 43 44 50 45 61 57 41 39 42 46 78 92 92 96 98 96 98 83 85 54
76 54 56 63 56 59 57 66 64 85 92 99 73 80 45 37 36 43 46 39 45 42 38 38 47 52 50 56 61 66 62 40 42 50 79 83 93 90 99 99 97 82 84 56
64 64 56 53 66 53 56 73 93 88 88 77 54 67 62 40 39 44 47 46 43 47 52 57 64 74 80 67 68 64 67 42 47 70 74 97 99 94 91 87 86 73 63 58
87 62 65 59 57 58 62 68 93 100 94 71 60 87 60 35 39 44 46 54 48 51 56 64 76 71 81 65 67 76 65 52 67 72 86 100 99 100 94 85 83 71 54 43
68 66 46 60 53 48 53 76 62 89 86 97 81 56 31 34 35 53 52 54 60 77 85 90 72 66 49 54 67 71 66 64 80 80 97 99 100 100 94 87 82 59 55 60
50 72 49 42 43 46 51 51 76 91 100 93 82 60 69 45 45 62 69 66 74 90 92 92 71 58 72 83 65 61 65 78 91 95 99 99 100 100 98 87 76 76 56 56
48 61 60 47 56 59 68 72 74 85 98 98 100 64 33 36 37 74 72 73 90 96 97 99 74 72 66 68 78 84 84 84 97 100 99 100 100 100 93 86 73 62 53 62
53 65 84 65 42 41 45 52 58 86 79 96 84 68 32 35 38 58 68 84 95 94 99 96 78 81 82 85 92 84 88 92 100 100 100 100 100 100 90 82 76 71 63 64
49 70 86 55 44 46 44 46 48 57 70 71 88 60 35 31 38 48 83 93 97 95 94 95 98 98 99 86 89 93 99 100 100 100 100 99 96 99 96 94 76 81 70 63
47 67 61 64 47 54 61 56 53 61 87 70 63 53 41 38 47 57 88 92 96 95 98 100 99 100 98 87 100 100 100 100 100 100 99 95 97 95 95 92 82 72 76 67
57 84 75 70 65 64 64 61 56 63 62 76 54 53 41 37 49 57 86 96 95 97 98 99 98 100 100 100 100 100 100 100 100 97 94 97 100 99 95 88 89 85 69 54
63 82 75 84 65 64 67 52 48 54 50 52 50 50 32 32 40 52 94 98 98 100 95 99 100 100 100 100 100 100 99 99 100 99 100 98 95 91 80 76 79 68 51 31
65 89 83 85 71 69 67 56 51 47 45 43 48 34 37 36 50 86 98 99 100 100 99 96 100 100 100 100 100 100 99 97 96 98 99 96 90 90 82 75 67 55 35 23
64 75 83 91 75 87 40 38 36 37 37 39 40 38 40 41 61 96 97 98 99 100 100 99 100 100 100 100 100 97 93 98 96 98 96 95 92 86 77 64 49 32 28 27
56 63 82 79 88 67 50 35 37 36 39 32 37 39 37 43 67 96 92 99 99 100 100 94 93 98 100 100 98 96 97 98 100 100 100 100 96 94 79 62 54 24 23 32
62 62 68 86 90 85 44 32 34 31 42 33 38 41 47 51 65 74 88 99 96 100 100 100 100 100 100 100 98 99 97 98 100 99 99 99 93 89 59 39 24 32 30 23
80 80 81 75 88 77 50 40 31 38 32 38 37 40 46 59 61 61 89 99 99 100 100 100 100 100 100 100 99 95 100 100 97 98 98 93 82 59 41 26 22 23 22 18
76 85 84 79 96 87 42 36 38 33 32 35 38 41 47 49 55 81 90 100 99 100 100 100 100 100 100 100 94 100 98 96 99 99 94 88 65 45 25 22 23 22 19 11
73 60 79 73 64 44 38 35 29 32 31 35 36 38 47 49 55 82 83 95 99 99 100 100 99 99 99 100 97 93 95 99 99 97 90 63 40 25 23 23 22 18 12 7
55 47 59 65 52 48 42 35 33 32 32 37 35 36 43 51 52 75 82 88 98 99 98 100 98 98 99 97 93 95 97 97 96 90 65 47 30 24 24 23 20 14 7 9
56 51 51 55 45 34 29 34 31 31 32 38 38 40 41 53 58 71 79 82 95 99 100 100 98 96 97 100 100 99 99 93 90 73 57 38 25 26 25 19 14 7 10 12
67 47 47 48 36 33 32 30 32 33 35 36 36 40 43 47 57 65 84 80 84 97 99 100 99 100 100 99 100 100 100 96 77 61 44 27 25 24 20 17 9 9 12 14